| time (UTC) | temp C | wind direction | speed KPH | gust KPH | rain 1hr cm | rain 24hr cm | rain mn cm | humidity % | barometer mb |
| 20260507102605 | 18 | 288 | 3.2 | 6.4 | 0.00 | 0.56 | 0.53 | 75 | 1019.2 |
| 20260507101615 | 17 | 356 | 0.0 | 3.2 | 0.00 | 0.56 | 0.53 | 76 | 1019.3 |
| 20260507100545 | 17 | 295 | 4.8 | 9.7 | 0.00 | 0.56 | 0.53 | 77 | 1019.2 |
| 20260507095536 | 17 | 90 | 1.6 | 3.2 | 0.00 | 0.56 | 0.53 | 76 | 1019.2 |
| 20260507094546 | 17 | 300 | 4.8 | 6.4 | 0.00 | 0.56 | 0.53 | 76 | 1019.3 |
| 20260507093516 | 17 | 292 | 1.6 | 4.8 | 0.00 | 0.56 | 0.53 | 75 | 1019.2 |
| 20260507092606 | 18 | 121 | 0.0 | 1.6 | 0.00 | 0.56 | 0.53 | 74 | 1019.0 |
| 20260507091556 | 17 | 150 | 0.0 | 3.2 | 0.00 | 0.56 | 0.53 | 77 | 1019.1 |
| 20260507090606 | 16 | 5 | 1.6 | 4.8 | 0.00 | 0.56 | 0.53 | 79 | 1019.0 |
| 20260507085537 | 15 | 312 | 3.2 | 6.4 | 0.00 | 0.56 | 0.53 | 80 | 1019.0 |
| 20260507084527 | 15 | 302 | 4.8 | 9.7 | 0.00 | 0.56 | 0.53 | 80 | 1019.1 |
| 20260507083517 | 15 | 303 | 3.2 | 9.7 | 0.00 | 0.56 | 0.53 | 80 | 1019.1 |
| 20260507082608 | 15 | 297 | 3.2 | 6.4 | 0.00 | 0.56 | 0.53 | 80 | 1019.2 |
| 20260507081558 | 15 | 301 | 3.2 | 6.4 | 0.00 | 0.56 | 0.53 | 79 | 1019.3 |
| 20260507080547 | 14 | 297 | 3.2 | 4.8 | 0.00 | 0.56 | 0.53 | 80 | 1019.4 |
| 20260507075618 | 13 | 312 | 1.6 | 4.8 | 0.00 | 0.56 | 0.53 | 82 | 1019.5 |
| 20260507074528 | 13 | 278 | 1.6 | 4.8 | 0.00 | 0.56 | 0.53 | 82 | 1019.4 |
| 20260507073518 | 13 | 301 | 1.6 | 4.8 | 0.00 | 0.56 | 0.53 | 84 | 1019.3 |
| 20260507072608 | 13 | 307 | 1.6 | 4.8 | 0.00 | 0.56 | 0.53 | 85 | 1019.5 |
| 20260507071559 | 13 | 257 | 0.0 | 3.2 | 0.00 | 0.56 | 0.53 | 86 | 1019.4 |
| 20260507070608 | 12 | 306 | 3.2 | 3.2 | 0.00 | 0.56 | 0.53 | 87 | 1019.4 |
| 20260507065539 | 12 | 290 | 3.2 | 4.8 | 0.00 | 0.56 | 0.53 | 87 | 1019.2 |
| 20260507064529 | 13 | 330 | 3.2 | 4.8 | 0.00 | 0.56 | 0.53 | 87 | 1019.0 |
| 20260507063539 | 13 | 305 | 3.2 | 4.8 | 0.00 | 0.56 | 0.53 | 85 | 1018.9 |
| 20260507062609 | 13 | 143 | 4.8 | 11.3 | 0.00 | 0.56 | 0.53 | 84 | 1018.8 |
| 20260507061559 | 12 | 154 | 4.8 | 9.7 | 0.00 | 0.58 | 0.53 | 85 | 1018.7 |
| 20260507060548 | 12 | 149 | 4.8 | 9.7 | 0.00 | 0.58 | 0.53 | 87 | 1018.8 |
| 20260507055539 | 12 | 147 | 6.4 | 9.7 | 0.00 | 0.61 | 0.53 | 88 | 1018.6 |
| 20260507054531 | 12 | 148 | 3.2 | 4.8 | 0.00 | 0.61 | 0.53 | 87 | 1018.7 |
| 20260507053519 | 12 | 150 | 4.8 | 6.4 | 0.00 | 0.64 | 0.53 | 86 | 1018.8 |
| 20260507052610 | 12 | 153 | 4.8 | 6.4 | 0.00 | 0.64 | 0.53 | 86 | 1018.8 |
| 20260507051600 | 12 | 150 | 3.2 | 4.8 | 0.00 | 0.64 | 0.53 | 86 | 1018.7 |
| 20260507050550 | 12 | 148 | 4.8 | 6.4 | 0.00 | 0.66 | 0.53 | 86 | 1018.6 |
| 20260507045540 | 12 | 151 | 3.2 | 6.4 | 0.00 | 0.66 | 0.53 | 85 | 1018.6 |
| 20260507044530 | 12 | 157 | 3.2 | 4.8 | 0.00 | 0.66 | 0.53 | 85 | 1018.6 |
| 20260507043541 | 11 | 155 | 3.2 | 6.4 | 0.00 | 0.66 | 0.53 | 87 | 1018.6 |
| 20260507042611 | 11 | 150 | 6.4 | 9.7 | 0.00 | 0.66 | 0.53 | 87 | 1018.7 |
| 20260507041601 | 11 | 0.0 | 0.0 | 0.03 | 0.66 | 0.53 | 89 | 1018.7 | |
| 20260507040612 | 11 | 0.0 | 0.0 | 0.03 | 0.66 | 0.53 | 88 | 1018.7 | |
| 20260507035542 | 11 | 142 | 4.8 | 6.4 | 0.03 | 0.66 | 0.53 | 89 | 1018.4 |
| 20260507034532 | 11 | 159 | 3.2 | 6.4 | 0.05 | 0.66 | 0.53 | 89 | 1018.3 |
| 20260507033521 | 11 | 154 | 1.6 | 4.8 | 0.08 | 0.66 | 0.53 | 89 | 1018.3 |
| 20260507032632 | 11 | 167 | 8.0 | 12.9 | 0.10 | 0.66 | 0.53 | 90 | 1018.2 |
| 20260507031622 | 11 | 148 | 4.8 | 11.3 | 0.10 | 0.64 | 0.51 | 91 | 1018.4 |
| 20260507030551 | 11 | 148 | 1.6 | 4.8 | 0.13 | 0.64 | 0.51 | 91 | 1018.6 |
| 20260507025543 | 11 | 0.0 | 0.0 | 0.15 | 0.64 | 0.51 | 91 | 1018.6 | |
| 20260507024553 | 11 | 0.0 | 0.0 | 0.15 | 0.61 | 0.48 | 90 | 1018.6 | |
| 20260507023522 | 11 | 0.0 | 4.8 | 0.15 | 0.58 | 0.46 | 90 | 1018.6 | |
| 20260507022613 | 11 | 191 | 1.6 | 4.8 | 0.20 | 0.56 | 0.43 | 90 | 1018.4 |
| 20260507021603 | 11 | 163 | 1.6 | 6.4 | 0.25 | 0.53 | 0.41 | 91 | 1018.5 |
| 20260507020554 | 11 | 0.0 | 0.0 | 0.25 | 0.53 | 0.38 | 91 | 1018.5 | |
| 20260507015543 | 11 | 0.0 | 0.0 | 0.25 | 0.51 | 0.36 | 90 | 1018.5 | |
| 20260507014533 | 11 | 0.0 | 0.0 | 0.23 | 0.48 | 0.33 | 90 | 1018.6 | |
| 20260507013523 | 11 | 0.0 | 0.0 | 0.20 | 0.46 | 0.30 | 90 | 1018.6 | |
| 20260507012614 | 11 | 0.0 | 3.2 | 0.15 | 0.38 | 0.23 | 90 | 1018.6 | |
| 20260507011604 | 11 | 155 | 3.2 | 6.4 | 0.10 | 0.30 | 0.15 | 90 | 1018.4 |
| 20260507010554 | 11 | 153 | 8.0 | 12.9 | 0.10 | 0.28 | 0.13 | 90 | 1018.3 |
| 20260507005544 | 11 | 145 | 11.3 | 20.9 | 0.08 | 0.25 | 0.10 | 90 | 1018.4 |
| 20260507004534 | 11 | 150 | 12.9 | 20.9 | 0.08 | 0.25 | 0.10 | 90 | 1018.4 |
| 20260507003524 | 11 | 153 | 9.7 | 17.7 | 0.08 | 0.25 | 0.10 | 89 | 1018.5 |
| 20260507002655 | 11 | 160 | 9.7 | 20.9 | 0.05 | 0.23 | 0.08 | 89 | 1018.5 |
| 20260507001625 | 11 | 143 | 11.3 | 24.1 | 0.03 | 0.20 | 0.05 | 88 | 1018.6 |
| 20260507000555 | 12 | 152 | 8.0 | 22.5 | 0.00 | 0.18 | 0.03 | 86 | 1018.6 |
| 20260506235545 | 12 | 156 | 11.3 | 22.5 | 0.00 | 0.18 | 0.03 | 85 | 1018.4 |
| 20260506234535 | 12 | 136 | 8.0 | 22.5 | 0.03 | 0.18 | 0.03 | 83 | 1018.4 |
| 20260506233545 | 12 | 138 | 8.0 | 25.7 | 0.03 | 0.18 | 0.03 | 83 | 1018.2 |
| 20260506232515 | 12 | 155 | 9.7 | 24.1 | 0.03 | 0.18 | 0.03 | 82 | 1018.4 |
| 20260506231626 | 12 | 159 | 12.9 | 29.0 | 0.03 | 0.18 | 0.03 | 83 | 1018.4 |
| 20260506230616 | 12 | 162 | 8.0 | 22.5 | 0.03 | 0.18 | 0.03 | 83 | 1018.4 |
| 20260506225606 | 12 | 152 | 12.9 | 27.4 | 0.03 | 0.18 | 0.03 | 82 | 1018.6 |
| 20260506224617 | 12 | 149 | 8.0 | 33.8 | 0.00 | 0.15 | 0.00 | 82 | 1018.6 |
| 20260506223526 | 12 | 137 | 9.7 | 25.7 | 0.00 | 0.15 | 0.00 | 83 | 1018.7 |
| 20260506222516 | 12 | 130 | 6.4 | 22.5 | 0.00 | 0.15 | 0.00 | 83 | 1018.9 |
| 20260506221607 | 12 | 145 | 11.3 | 27.4 | 0.00 | 0.15 | 0.00 | 83 | 1018.7 |
| 20260506220557 | 12 | 152 | 6.4 | 24.1 | 0.00 | 0.15 | 0.00 | 82 | 1018.8 |
| 20260506215547 | 13 | 152 | 11.3 | 24.1 | 0.00 | 0.15 | 0.15 | 80 | 1018.8 |
| 20260506214537 | 13 | 153 | 11.3 | 25.7 | 0.00 | 0.15 | 0.15 | 78 | 1018.8 |
| 20260506213528 | 13 | 154 | 12.9 | 25.7 | 0.00 | 0.15 | 0.15 | 77 | 1018.6 |
| 20260506212517 | 13 | 159 | 8.0 | 25.7 | 0.00 | 0.15 | 0.15 | 78 | 1018.7 |
| 20260506211608 | 13 | 148 | 8.0 | 17.7 | 0.00 | 0.15 | 0.15 | 81 | 1018.7 |
| 20260506210639 | 13 | 165 | 4.8 | 12.9 | 0.00 | 0.15 | 0.15 | 83 | 1018.8 |
| 20260506205549 | 13 | 129 | 4.8 | 12.9 | 0.00 | 0.15 | 0.15 | 84 | 1018.9 |
| 20260506204558 | 13 | 160 | 3.2 | 14.5 | 0.00 | 0.15 | 0.15 | 84 | 1019.1 |
| 20260506203528 | 13 | 155 | 3.2 | 14.5 | 0.00 | 0.15 | 0.15 | 84 | 1019.3 |
| 20260506202518 | 13 | 158 | 3.2 | 11.3 | 0.00 | 0.15 | 0.15 | 84 | 1019.2 |
| 20260506201629 | 13 | 153 | 3.2 | 14.5 | 0.00 | 0.15 | 0.15 | 84 | 1019.2 |
| 20260506200559 | 13 | 135 | 6.4 | 14.5 | 0.00 | 0.15 | 0.15 | 84 | 1019.0 |
| 20260506195549 | 13 | 144 | 4.8 | 11.3 | 0.00 | 0.15 | 0.15 | 83 | 1019.3 |
| 20260506194540 | 13 | 148 | 1.6 | 11.3 | 0.00 | 0.15 | 0.15 | 83 | 1019.2 |
| 20260506193550 | 13 | 169 | 3.2 | 11.3 | 0.00 | 0.15 | 0.15 | 83 | 1019.1 |
| 20260506192539 | 13 | 119 | 3.2 | 11.3 | 0.00 | 0.15 | 0.15 | 82 | 1018.8 |
| 20260506191612 | 13 | 138 | 3.2 | 12.9 | 0.00 | 0.15 | 0.15 | 82 | 1018.8 |
| 20260506190600 | 13 | 136 | 1.6 | 12.9 | 0.00 | 0.15 | 0.15 | 82 | 1018.7 |
| 20260506185551 | 13 | 157 | 3.2 | 11.3 | 0.00 | 0.15 | 0.15 | 82 | 1018.7 |
| 20260506184540 | 13 | 168 | 0.0 | 11.3 | 0.03 | 0.15 | 0.15 | 81 | 1018.7 |
| 20260506183531 | 13 | 149 | 3.2 | 14.5 | 0.03 | 0.15 | 0.15 | 81 | 1018.6 |
| 20260506182521 | 13 | 155 | 6.4 | 11.3 | 0.03 | 0.15 | 0.15 | 80 | 1018.6 |
| 20260506181611 | 13 | 122 | 1.6 | 4.8 | 0.03 | 0.15 | 0.15 | 81 | 1018.7 |
| 20260506180601 | 13 | 152 | 8.0 | 14.5 | 0.03 | 0.15 | 0.15 | 81 | 1018.6 |
| 20260506175551 | 14 | 159 | 0.0 | 4.8 | 0.03 | 0.15 | 0.15 | 80 | 1018.6 |
| 20260506174541 | 14 | 142 | 0.0 | 6.4 | 0.00 | 0.13 | 0.13 | 78 | 1018.5 |
| 20260506173531 | 15 | 144 | 1.6 | 3.2 | 0.00 | 0.13 | 0.13 | 77 | 1018.3 |
| 20260506172541 | 15 | 145 | 1.6 | 3.2 | 0.00 | 0.13 | 0.13 | 77 | 1018.3 |
| 20260506171611 | 15 | 155 | 3.2 | 11.3 | 0.00 | 0.13 | 0.13 | 76 | 1018.4 |
| 20260506170602 | 15 | 133 | 0.0 | 4.8 | 0.00 | 0.13 | 0.13 | 75 | 1018.3 |
| 20260506165553 | 15 | 149 | 0.0 | 9.7 | 0.00 | 0.13 | 0.13 | 74 | 1018.2 |
| 20260506164543 | 15 | 118 | 1.6 | 6.4 | 0.00 | 0.13 | 0.13 | 73 | 1018.6 |
| 20260506163533 | 15 | 139 | 0.0 | 9.7 | 0.00 | 0.13 | 0.13 | 73 | 1018.6 |
| 20260506162523 | 15 | 197 | 0.0 | 4.8 | 0.00 | 0.13 | 0.13 | 73 | 1018.6 |
| 20260506161614 | 15 | 170 | 0.0 | 4.8 | 0.00 | 0.13 | 0.13 | 73 | 1018.6 |
| 20260506160623 | 15 | 139 | 0.0 | 3.2 | 0.00 | 0.13 | 0.13 | 73 | 1018.5 |
| 20260506155554 | 15 | 155 | 1.6 | 4.8 | 0.00 | 0.13 | 0.13 | 73 | 1018.6 |
| 20260506154544 | 15 | 159 | 1.6 | 6.4 | 0.00 | 0.13 | 0.13 | 72 | 1018.5 |
| 20260506153534 | 15 | 152 | 1.6 | 9.7 | 0.00 | 0.13 | 0.13 | 72 | 1018.6 |
| 20260506152524 | 16 | 154 | 0.0 | 3.2 | 0.00 | 0.13 | 0.13 | 71 | 1018.6 |
| 20260506151614 | 16 | 99 | 0.0 | 3.2 | 0.00 | 0.13 | 0.13 | 71 | 1018.7 |
| 20260506150604 | 16 | 131 | 0.0 | 1.6 | 0.00 | 0.13 | 0.13 | 71 | 1018.8 |
| 20260506145715 | 16 | 166 | 0.0 | 1.6 | 0.00 | 0.13 | 0.13 | 71 | 1018.8 |
| 20260506144545 | 16 | 142 | 0.0 | 4.8 | 0.00 | 0.13 | 0.13 | 71 | 1018.6 |
| 20260506143534 | 17 | 141 | 1.6 | 9.7 | 0.00 | 0.13 | 0.13 | 68 | 1018.6 |
| 20260506142524 | 17 | 132 | 0.0 | 4.8 | 0.00 | 0.13 | 0.13 | 65 | 1018.6 |
| 20260506141615 | 17 | 94 | 1.6 | 3.2 | 0.00 | 0.13 | 0.13 | 65 | 1018.6 |
| 20260506140605 | 17 | 111 | 1.6 | 4.8 | 0.00 | 0.13 | 0.13 | 64 | 1018.6 |
| 20260506135556 | 17 | 133 | 1.6 | 4.8 | 0.00 | 0.13 | 0.13 | 63 | 1018.6 |
| 20260506134545 | 17 | 139 | 0.0 | 3.2 | 0.00 | 0.13 | 0.13 | 62 | 1018.8 |
| 20260506133535 | 18 | 114 | 0.0 | 3.2 | 0.00 | 0.13 | 0.13 | 62 | 1018.7 |
| 20260506132525 | 18 | 124 | 0.0 | 4.8 | 0.00 | 0.13 | 0.13 | 62 | 1018.7 |
| 20260506131515 | 18 | 124 | 1.6 | 4.8 | 0.00 | 0.13 | 0.13 | 61 | 1018.8 |
| 20260506130606 | 19 | 106 | 1.6 | 3.2 | 0.00 | 0.13 | 0.13 | 61 | 1018.8 |
| 20260506125557 | 19 | 116 | 0.0 | 3.2 | 0.00 | 0.13 | 0.13 | 60 | 1018.7 |
| 20260506124546 | 19 | 179 | 0.0 | 4.8 | 0.00 | 0.13 | 0.13 | 60 | 1018.7 |
| 20260506123537 | 19 | 138 | 1.6 | 4.8 | 0.00 | 0.13 | 0.13 | 60 | 1018.8 |
| 20260506122526 | 19 | 121 | 1.6 | 6.4 | 0.00 | 0.13 | 0.13 | 60 | 1018.9 |
| 20260506121517 | 19 | 133 | 1.6 | 4.8 | 0.00 | 0.13 | 0.13 | 58 | 1018.7 |
| 20260506120607 | 20 | 199 | 1.6 | 4.8 | 0.00 | 0.13 | 0.13 | 60 | 1018.8 |
| 20260506115558 | 19 | 100 | 0.0 | 4.8 | 0.00 | 0.13 | 0.13 | 64 | 1018.7 |
| 20260506114548 | 19 | 127 | 1.6 | 6.4 | 0.00 | 0.13 | 0.13 | 66 | 1018.9 |
| 20260506113538 | 18 | 133 | 1.6 | 6.4 | 0.00 | 0.13 | 0.13 | 67 | 1018.7 |
| 20260506112528 | 18 | 140 | 3.2 | 14.5 | 0.00 | 0.13 | 0.13 | 69 | 1018.7 |
| 20260506111518 | 18 | 169 | 4.8 | 22.5 | 0.00 | 0.13 | 0.13 | 68 | 1018.7 |
| 20260506110628 | 17 | 154 | 6.4 | 16.1 | 0.00 | 0.13 | 0.13 | 72 | 1018.8 |
| 20260506105559 | 17 | 153 | 9.7 | 29.0 | 0.00 | 0.13 | 0.13 | 74 | 1019.0 |
| 20260506104608 | 16 | 146 | 3.2 | 16.1 | 0.00 | 0.13 | 0.13 | 77 | 1018.9 |
| 20260506103538 | 16 | 151 | 11.3 | 24.1 | 0.00 | 0.13 | 0.13 | 77 | 1018.9 |